This demonstration page uses our WeatherBlox Daily Observations layout. Learn more.

Left ArrowRight Arrow

Hourly Observations for October 13, 2019

Temp ( °F °C ) Dew Point ( °F °C ) Humidity (%) Winds ( mph kmh ) Pressure ( in mb ) Visibility ( mi km ) Precip ( " mm )
12:53 am 00:53 Cloudy 63 17.2 58 14.4 84 84 Calm 30.01 1016 10 16 0.00 0.00
1:53 am 01:53 Cloudy 63 17.2 59 15 87 87 Calm 30.00 1016 10 16 0.00 0.00
2:53 am 02:53 Cloudy 64 17.8 57 13.9 78 78 Calm 29.99 1016 10 16 0.00 0.00
3:53 am 03:53 Cloudy with Light Rain 63 17.2 59 15 87 87 Calm 29.99 1016 10 16 0.00 0.00
4:53 am 04:53 Cloudy 62 16.7 59 15 90 90 Calm 29.98 1015 10 16 0.00 0.00
5:53 am 05:53 Partly Cloudy 61 16.1 59 15 93 93 Calm 30.00 1016 10 16 0.00 0.00
6:53 am 06:53 Mostly Cloudy 61 16.1 57 13.9 87 87 Calm 30.01 1016 10 16 0.00 0.00
7:53 am 07:53 Cloudy with Light Rain 61 16.1 58 14.4 90 90 Calm 30.03 1017 10 16 0.00 0.00
8:03 am 08:03 Cloudy 61 16.1 57 13.9 87 87 Calm 30.04 1017 10 16 0.00 0.00
8:53 am 08:53 Cloudy with Light Rain 59 15 56 13.3 90 90 NW 6 9 30.05 1018 8 13 0.02 0.51
9:15 am 09:15 Cloudy with Light Rain 59 15 56 13.3 90 90 NNW 5 7 30.07 1018 3 5 0.04 1.02
9:23 am 09:23 Cloudy with Light Rain 59 15 56 13.3 90 90 NNW 3 6 30.07 1018 3 4 0.05 1.27
9:53 am 09:53 Cloudy with Mist and Fog 59 15 57 13.9 93 93 NNW 5 7 30.07 1018 2 3 0.06 1.52
10:53 am 10:53 Cloudy with Light Rain 59 15 57 13.9 93 93 Calm 30.08 1019 2 3 0.03 0.76
11:00 am 11:00 Cloudy with Light Rain 59 15 57 13.9 93 93 Calm 30.08 1019 10 16 0.00 0.00
11:43 am 11:43 Cloudy with Mist and Fog 60 15.6 58 14.4 93 93 Calm 30.07 1018 5 8 0.00 0.00
11:53 am 11:53 Cloudy with Mist and Fog 61 16.1 58 14.4 90 90 Calm 30.06 1018 6 10 0.00 0.00
12:53 pm 12:53 Cloudy with Light Rain 62 16.7 59 15 90 90 Calm 30.06 1018 3 5 0.00 0.00
1:34 pm 13:34 Cloudy with Light Rain 63 17.2 61 16.1 93 93 Calm 30.05 1018 3 4 0.02 0.51
1:43 pm 13:43 Cloudy 63 17.2 61 16.1 93 93 Calm 30.05 1018 8 13 0.02 0.51
1:53 pm 13:53 Cloudy with Light Rain 63 17.2 61 16.1 93 93 SW 3 6 30.05 1018 4 6 0.02 0.51
2:05 pm 14:05 Cloudy with Light Rain 63 17.2 61 16.1 93 93 WSW 3 6 30.04 1017 3 4 0.01 0.25
2:16 pm 14:16 Cloudy with Light Rain 63 17.2 61 16.1 93 93 SSW 5 7 30.04 1017 6 10 0.01 0.25
2:35 pm 14:35 Cloudy 63 17.2 61 16.1 93 93 Calm 30.04 1017 10 16 0.01 0.25
2:53 pm 14:53 Cloudy 64 17.8 60 15.6 87 87 Calm 30.04 1017 10 16 0.01 0.25
3:33 pm 15:33 Cloudy with Light Rain 63 17.2 61 16.1 93 93 SSW 3 6 30.05 1018 5 8 0.02 0.51
3:53 pm 15:53 Cloudy with Light Rain 64 17.8 61 16.1 90 90 Calm 30.04 1017 9 14 0.03 0.76
4:00 pm 16:00 Cloudy with Light Rain 64 17.8 61 16.1 90 90 Calm 30.04 1017 9 14 0.00 0.00
4:08 pm 16:08 Cloudy with Light Rain 64 17.8 62 16.7 93 93 SSW 5 7 30.05 1017 10 16 0.00 0.00
4:53 pm 16:53 Partly Cloudy 65 18.3 62 16.7 90 90 W 3 6 30.03 1017 10 16 0.00 0.00
5:53 pm 17:53 Partly Cloudy 65 18.3 62 16.7 90 90 Calm 30.03 1017 10 16 0.00 0.00
6:53 pm 18:53 Mostly Cloudy with Light Rain 65 18.3 62 16.7 90 90 SSE 5 7 30.02 1017 8 13 0.02 0.51
7:23 pm 19:23 Mostly Cloudy with Light Rain 64 17.8 63 17.2 96 96 W 5 7 30.06 1018 8 13 0.03 0.76
7:53 pm 19:53 Cloudy with Light Rain 63 17.2 60 15.6 90 90 S 6 9 30.02 1017 10 16 0.04 1.02
8:53 pm 20:53 Mostly Cloudy with Light Rain 62 16.7 59 15 90 90 W 6 9 30.08 1019 8 13 0.02 0.51
9:53 pm 21:53 Partly Cloudy 62 16.7 58 14.4 86 86 W 5 7 30.07 1018 10 16 0.00 0.00
10:53 pm 22:53 Mostly Cloudy with Light Rain 61 16.1 58 14.4 90 90 Calm 30.07 1018 10 16 0.01 0.25
11:53 pm 23:53 Clear 61 16.1 58 14.4 90 90 Calm 30.06 1018 10 16 0.00 0.00

Powered by AerisWeather